Simultaneous Nadir Overpasses (SNOs) Predictions

Prediction of SNOs between GOES-16 and METOP-C Satellite Orbit:

Table of predicted SNOs for the next 14.0 days since TLE Epoch: 12/3/2023
Index Date Time (GOES-16) GOES-16 Lat,Lon METOP-C Lat,Lon Distance(km) Time Diff (sec)
1 12/04/2023 02:38:48 0.04, -75.20 -0.37, -76.94 198.49 80
2 12/05/2023 02:15:30 0.04, -75.21 0.79, -71.96 371.60 80
3 12/06/2023 14:37:02 -0.04, -75.26 0.25, -76.51 143.12 80
4 12/07/2023 14:13:43 -0.04, -75.27 -0.86, -71.52 427.41 80
5 12/09/2023 02:35:22 0.04, -75.26 -0.15, -76.11 96.75 80
6 12/10/2023 02:12:03 0.04, -75.27 0.96, -71.11 473.90 80
7 12/11/2023 14:30:55 -0.03, -75.32 0.06, -75.67 40.29 80
8 12/14/2023 02:29:15 0.02, -75.33 0.06, -75.27 7.42 80
9 12/16/2023 14:30:07 -0.01, -75.39 -0.12, -74.83 64.04 80
